| time (UTC) | temp F | wind direction | speed MPH | gust MPH | rain 1hr in | rain 24hr in | rain mn in | humidity % | barometer mb |
| 20260507220430 | 61 | 179 | 1.0 | 2.0 | 0.00 | 0.00 | 0.00 | 46 | 1008.5 |
| 20260507215926 | 60 | 98 | 0.0 | 3.0 | 0.00 | 0.00 | 0.00 | 46 | 1008.8 |
| 20260507215423 | 58 | 322 | 0.0 | 3.0 | 0.00 | 0.00 | 0.00 | 51 | 1008.6 |
| 20260507214920 | 58 | 118 | 1.0 | 4.0 | 0.00 | 0.00 | 0.00 | 49 | 1008.5 |
| 20260507214418 | 57 | 258 | 0.0 | 2.0 | 0.00 | 0.00 | 0.00 | 51 | 1008.8 |
| 20260507213913 | 55 | 163 | 2.0 | 5.0 | 0.00 | 0.00 | 0.00 | 54 | 1009.1 |
| 20260507213410 | 54 | 267 | 2.0 | 2.0 | 0.00 | 0.00 | 0.00 | 55 | 1009.2 |
| 20260507212907 | 52 | 352 | 1.0 | 6.0 | 0.00 | 0.00 | 0.00 | 67 | 1009.3 |
| 20260507212403 | 51 | 209 | 2.0 | 6.0 | 0.00 | 0.00 | 0.00 | 66 | 1009.0 |
| 20260507211859 | 51 | 135 | 3.0 | 4.0 | 0.00 | 0.00 | 0.00 | 66 | 1009.3 |
| 20260507211356 | 52 | 62 | 3.0 | 5.0 | 0.00 | 0.00 | 0.00 | 64 | 1009.3 |
| 20260507210853 | 53 | 92 | 1.0 | 5.0 | 0.00 | 0.00 | 0.00 | 65 | 1009.5 |
| 20260507210350 | 53 | 122 | 2.0 | 3.0 | 0.00 | 0.00 | 0.00 | 63 | 1009.2 |
| 20260507205847 | 53 | 47 | 0.0 | 4.0 | 0.00 | 0.00 | 0.00 | 58 | 1009.2 |
| 20260507205344 | 53 | 38 | 4.0 | 7.0 | 0.00 | 0.00 | 0.00 | 55 | 1009.4 |
| 20260507204840 | 53 | 44 | 1.0 | 2.0 | 0.00 | 0.00 | 0.00 | 59 | 1009.4 |
| 20260507204337 | 53 | 131 | 2.0 | 4.0 | 0.00 | 0.00 | 0.00 | 58 | 1008.9 |
| 20260507203835 | 54 | 44 | 1.0 | 4.0 | 0.00 | 0.00 | 0.00 | 55 | 1008.6 |
| 20260507203333 | 54 | 24 | 4.0 | 6.0 | 0.00 | 0.00 | 0.00 | 55 | 1008.4 |
| 20260507202828 | 55 | 353 | 2.0 | 5.0 | 0.00 | 0.00 | 0.00 | 52 | 1008.7 |
| 20260507202325 | 56 | 25 | 6.0 | 6.0 | 0.00 | 0.00 | 0.00 | 48 | 1008.6 |
| 20260507201820 | 58 | 297 | 4.0 | 6.0 | 0.00 | 0.00 | 0.00 | 42 | 1009.1 |
| 20260507201316 | 60 | 10 | 3.0 | 8.0 | 0.00 | 0.00 | 0.00 | 40 | 1008.8 |
| 20260507200813 | 60 | 164 | 2.0 | 4.0 | 0.00 | 0.00 | 0.00 | 38 | 1008.8 |
| 20260507200309 | 60 | 244 | 0.0 | 4.0 | 0.00 | 0.00 | 0.00 | 40 | 1008.8 |
| 20260507195805 | 58 | 109 | 4.0 | 4.0 | 0.00 | 0.00 | 0.00 | 44 | 1008.6 |
| 20260507195305 | 58 | 173 | 0.0 | 1.0 | 0.00 | 0.00 | 0.00 | 46 | 1008.9 |
| 20260507194800 | 57 | 44 | 0.0 | 3.0 | 0.00 | 0.00 | 0.00 | 45 | 1009.1 |
| 20260507194255 | 57 | 265 | 4.0 | 8.0 | 0.00 | 0.00 | 0.00 | 43 | 1009.3 |
| 20260507193752 | 57 | 107 | 0.0 | 4.0 | 0.00 | 0.00 | 0.00 | 46 | 1009.3 |
| 20260507193249 | 56 | 284 | 2.0 | 3.0 | 0.00 | 0.00 | 0.00 | 46 | 1009.6 |
| 20260507192745 | 56 | 118 | 0.0 | 3.0 | 0.00 | 0.00 | 0.00 | 45 | 1009.6 |
| 20260507192242 | 56 | 337 | 0.0 | 7.0 | 0.00 | 0.00 | 0.00 | 46 | 1009.7 |
| 20260507191738 | 56 | 260 | 2.0 | 4.0 | 0.00 | 0.00 | 0.00 | 46 | 1009.7 |
| 20260507191235 | 56 | 233 | 0.0 | 4.0 | 0.00 | 0.00 | 0.00 | 45 | 1009.6 |
| 20260507190732 | 56 | 308 | 1.0 | 3.0 | 0.00 | 0.00 | 0.00 | 45 | 1009.8 |
| 20260507190230 | 55 | 244 | 0.0 | 7.0 | 0.00 | 0.00 | 0.00 | 46 | 1009.7 |
| 20260507185729 | 55 | 86 | 1.0 | 2.0 | 0.00 | 0.00 | 0.00 | 49 | 1009.8 |
| 20260507185225 | 55 | 13 | 0.0 | 4.0 | 0.00 | 0.00 | 0.00 | 46 | 1009.9 |
| 20260507184723 | 56 | 336 | 0.0 | 3.0 | 0.00 | 0.00 | 0.00 | 48 | 1009.7 |
| 20260507184221 | 55 | 31 | 1.0 | 2.0 | 0.00 | 0.00 | 0.00 | 54 | 1010.0 |
| 20260507183717 | 55 | 2 | 2.0 | 3.0 | 0.00 | 0.00 | 0.00 | 52 | 1010.4 |
| 20260507183214 | 56 | 262 | 2.0 | 8.0 | 0.00 | 0.00 | 0.00 | 43 | 1010.4 |
| 20260507182711 | 58 | 271 | 2.0 | 5.0 | 0.00 | 0.00 | 0.00 | 37 | 1010.2 |
| 20260507182206 | 59 | 155 | 3.0 | 4.0 | 0.00 | 0.00 | 0.00 | 37 | 1009.9 |
| 20260507181703 | 60 | 162 | 2.0 | 2.0 | 0.00 | 0.00 | 0.00 | 37 | 1010.1 |
| 20260507181200 | 59 | 273 | 2.0 | 3.0 | 0.00 | 0.00 | 0.00 | 38 | 1010.3 |
| 20260507180656 | 58 | 142 | 0.0 | 2.0 | 0.00 | 0.00 | 0.00 | 37 | 1010.4 |
| 20260507180153 | 58 | 212 | 0.0 | 4.0 | 0.00 | 0.00 | 0.00 | 40 | 1010.7 |
| 20260507175649 | 58 | 272 | 2.0 | 4.0 | 0.00 | 0.00 | 0.00 | 40 | 1010.5 |
| 20260507175146 | 58 | 206 | 1.0 | 3.0 | 0.00 | 0.00 | 0.00 | 37 | 1010.4 |
| 20260507174643 | 58 | 232 | 1.0 | 3.0 | 0.00 | 0.00 | 0.00 | 37 | 1010.7 |
| 20260507174142 | 57 | 253 | 0.0 | 3.0 | 0.00 | 0.00 | 0.00 | 37 | 1011.0 |
| 20260507173638 | 57 | 336 | 0.0 | 5.0 | 0.00 | 0.00 | 0.00 | 38 | 1011.1 |
| 20260507173136 | 57 | 161 | 1.0 | 3.0 | 0.00 | 0.00 | 0.00 | 36 | 1011.2 |
| 20260507172632 | 58 | 218 | 2.0 | 6.0 | 0.00 | 0.00 | 0.00 | 36 | 1011.2 |
| 20260507172129 | 59 | 199 | 0.0 | 4.0 | 0.00 | 0.00 | 0.00 | 35 | 1011.3 |
| 20260507171624 | 59 | 86 | 0.0 | 3.0 | 0.00 | 0.00 | 0.00 | 34 | 1011.5 |
| 20260507171121 | 60 | 319 | 2.0 | 9.0 | 0.00 | 0.00 | 0.00 | 31 | 1011.4 |
| 20260507170618 | 60 | 256 | 3.0 | 6.0 | 0.00 | 0.00 | 0.00 | 35 | 1011.4 |
| 20260507170115 | 60 | 253 | 1.0 | 3.0 | 0.00 | 0.00 | 0.00 | 33 | 1011.6 |
| 20260507165611 | 61 | 170 | 2.0 | 2.0 | 0.00 | 0.00 | 0.00 | 32 | 1011.6 |
| 20260507165107 | 61 | 290 | 2.0 | 3.0 | 0.00 | 0.00 | 0.00 | 37 | 1011.7 |
| 20260507164603 | 60 | 150 | 2.0 | 2.0 | 0.00 | 0.00 | 0.00 | 35 | 1011.5 |
| 20260507164100 | 60 | 111 | 4.0 | 4.0 | 0.00 | 0.00 | 0.00 | 33 | 1012.0 |
| 20260507163558 | 59 | 195 | 0.0 | 3.0 | 0.00 | 0.00 | 0.00 | 35 | 1011.8 |
| 20260507163056 | 58 | 165 | 3.0 | 3.0 | 0.00 | 0.00 | 0.00 | 37 | 1012.2 |
| 20260507162555 | 58 | 182 | 2.0 | 4.0 | 0.00 | 0.00 | 0.00 | 38 | 1012.3 |
| 20260507162053 | 58 | 206 | 0.0 | 3.0 | 0.00 | 0.00 | 0.00 | 35 | 1012.3 |
| 20260507161549 | 58 | 141 | 3.0 | 4.0 | 0.00 | 0.00 | 0.00 | 34 | 1012.3 |
| 20260507161046 | 58 | 167 | 2.0 | 3.0 | 0.00 | 0.00 | 0.00 | 35 | 1012.3 |
| 20260507160542 | 58 | 267 | 1.0 | 3.0 | 0.00 | 0.00 | 0.00 | 34 | 1012.5 |
| 20260507160038 | 58 | 185 | 0.0 | 3.0 | 0.00 | 0.00 | 0.00 | 37 | 1012.6 |
| 20260507155534 | 57 | 14 | 0.0 | 2.0 | 0.00 | 0.00 | 0.00 | 36 | 1012.4 |
| 20260507155031 | 57 | 257 | 2.0 | 4.0 | 0.00 | 0.00 | 0.00 | 37 | 1012.8 |
| 20260507154528 | 57 | 258 | 2.0 | 3.0 | 0.00 | 0.00 | 0.00 | 34 | 1012.8 |
| 20260507154025 | 58 | 274 | 0.0 | 2.0 | 0.00 | 0.00 | 0.00 | 37 | 1012.7 |
| 20260507153522 | 57 | 125 | 2.0 | 4.0 | 0.00 | 0.00 | 0.00 | 35 | 1012.6 |
| 20260507153018 | 57 | 180 | 2.0 | 5.0 | 0.00 | 0.00 | 0.00 | 36 | 1012.9 |
| 20260507152513 | 56 | 182 | 0.0 | 2.0 | 0.00 | 0.00 | 0.00 | 40 | 1013.2 |
| 20260507152010 | 55 | 316 | 0.0 | 5.0 | 0.00 | 0.00 | 0.00 | 37 | 1013.3 |
| 20260507151507 | 54 | 127 | 1.0 | 3.0 | 0.00 | 0.00 | 0.00 | 41 | 1013.3 |
| 20260507151004 | 54 | 166 | 0.0 | 2.0 | 0.00 | 0.00 | 0.00 | 40 | 1013.4 |
| 20260507150500 | 54 | 46 | 2.0 | 4.0 | 0.00 | 0.00 | 0.00 | 42 | 1013.4 |
| 20260507145956 | 54 | 305 | 3.0 | 4.0 | 0.00 | 0.00 | 0.00 | 41 | 1013.5 |
| 20260507145452 | 53 | 243 | 0.0 | 6.0 | 0.00 | 0.00 | 0.00 | 42 | 1013.5 |
| 20260507144950 | 52 | 89 | 0.0 | 2.0 | 0.00 | 0.00 | 0.00 | 45 | 1013.9 |
| 20260507144446 | 52 | 271 | 3.0 | 4.0 | 0.00 | 0.00 | 0.00 | 43 | 1013.9 |
| 20260507143943 | 52 | 159 | 1.0 | 3.0 | 0.00 | 0.00 | 0.00 | 42 | 1013.9 |
| 20260507143441 | 51 | 157 | 0.0 | 3.0 | 0.00 | 0.00 | 0.00 | 44 | 1014.0 |
| 20260507142937 | 51 | 285 | 2.0 | 3.0 | 0.00 | 0.00 | 0.00 | 45 | 1014.3 |
| 20260507142433 | 51 | 276 | 1.0 | 2.0 | 0.00 | 0.00 | 0.00 | 45 | 1014.1 |
| 20260507141931 | 50 | 350 | 1.0 | 2.0 | 0.00 | 0.00 | 0.00 | 43 | 1014.2 |
| 20260507141426 | 51 | 140 | 2.0 | 2.0 | 0.00 | 0.00 | 0.00 | 45 | 1014.0 |
| 20260507140923 | 50 | 204 | 0.0 | 3.0 | 0.00 | 0.00 | 0.00 | 49 | 1013.9 |
| 20260507140420 | 49 | 240 | 0.0 | 1.0 | 0.00 | 0.00 | 0.00 | 49 | 1014.4 |
| 20260507135918 | 50 | 249 | 0.0 | 3.0 | 0.00 | 0.00 | 0.00 | 47 | 1014.2 |
| 20260507135414 | 49 | 120 | 2.0 | 3.0 | 0.00 | 0.00 | 0.00 | 48 | 1014.4 |
| 20260507134912 | 48 | 25 | 0.0 | 2.0 | 0.00 | 0.00 | 0.00 | 51 | 1014.3 |
| 20260507134408 | 47 | 103 | 0.0 | 2.0 | 0.00 | 0.00 | 0.00 | 51 | 1014.2 |
| 20260507133904 | 47 | 95 | 2.0 | 2.0 | 0.00 | 0.00 | 0.00 | 50 | 1014.0 |
| 20260507133400 | 46 | 130 | 0.0 | 1.0 | 0.00 | 0.00 | 0.00 | 52 | 1014.4 |
| 20260507132859 | 44 | 84 | 1.0 | 2.0 | 0.00 | 0.00 | 0.00 | 57 | 1014.3 |
| 20260507132354 | 44 | 11 | 0.0 | 2.0 | 0.00 | 0.00 | 0.00 | 56 | 1014.5 |
| 20260507131852 | 44 | 103 | 0.0 | 2.0 | 0.00 | 0.00 | 0.00 | 59 | 1014.4 |
| 20260507131349 | 43 | 86 | 1.0 | 2.0 | 0.00 | 0.00 | 0.00 | 59 | 1014.7 |
| 20260507130846 | 43 | 65 | 0.0 | 2.0 | 0.00 | 0.00 | 0.00 | 59 | 1014.4 |
| 20260507130342 | 42 | 83 | 0.0 | 2.0 | 0.00 | 0.00 | 0.00 | 60 | 1014.4 |
| 20260507125842 | 42 | 246 | 0.0 | 0.0 | 0.00 | 0.00 | 0.00 | 61 | 1014.7 |
| 20260507125338 | 42 | 76 | 0.0 | 1.0 | 0.00 | 0.00 | 0.00 | 63 | 1014.6 |
| 20260507124836 | 42 | 29 | 0.0 | 2.0 | 0.00 | 0.00 | 0.00 | 63 | 1014.5 |
| 20260507124332 | 42 | 66 | 0.0 | 2.0 | 0.00 | 0.00 | 0.00 | 65 | 1014.3 |
| 20260507123831 | 41 | 74 | 0.0 | 2.0 | 0.00 | 0.00 | 0.00 | 66 | 1014.3 |
| 20260507123327 | 41 | 89 | 0.0 | 2.0 | 0.00 | 0.00 | 0.00 | 69 | 1014.2 |
| 20260507122823 | 40 | 49 | 1.0 | 2.0 | 0.00 | 0.00 | 0.00 | 66 | 1014.2 |
| 20260507122319 | 40 | 69 | 0.0 | 2.0 | 0.00 | 0.00 | 0.00 | 69 | 1014.0 |
| 20260507121816 | 40 | 61 | 2.0 | 2.0 | 0.00 | 0.00 | 0.00 | 69 | 1014.2 |
| 20260507121311 | 41 | 34 | 1.0 | 1.0 | 0.00 | 0.00 | 0.00 | 69 | 1014.1 |
| 20260507120808 | 40 | 67 | 2.0 | 2.0 | 0.00 | 0.00 | 0.00 | 76 | 1014.1 |
| 20260507120304 | 38 | 81 | 2.0 | 2.0 | 0.00 | 0.00 | 0.00 | 82 | 1014.2 |
| 20260507115801 | 36 | 69 | 1.0 | 2.0 | 0.00 | 0.00 | 0.00 | 85 | 1014.2 |
| 20260507115256 | 35 | 55 | 2.0 | 2.0 | 0.00 | 0.00 | 0.00 | 87 | 1014.1 |
| 20260507114752 | 35 | 80 | 2.0 | 2.0 | 0.00 | 0.00 | 0.00 | 90 | 1014.1 |
| 20260507114250 | 34 | 83 | 2.0 | 2.0 | 0.00 | 0.00 | 0.00 | 91 | 1013.9 |
| 20260507113747 | 33 | 78 | 1.0 | 2.0 | 0.00 | 0.00 | 0.00 | 91 | 1014.1 |
| 20260507113243 | 32 | 71 | 2.0 | 2.0 | 0.00 | 0.00 | 0.00 | 91 | 1014.1 |
| 20260507112741 | 32 | 73 | 2.0 | 2.0 | 0.00 | 0.00 | 0.00 | 92 | 1013.9 |
| 20260507112238 | 32 | 64 | 2.0 | 2.0 | 0.00 | 0.00 | 0.00 | 92 | 1013.8 |
| 20260507111736 | 31 | 54 | 2.0 | 2.0 | 0.00 | 0.00 | 0.00 | 92 | 1014.0 |
| 20260507111232 | 31 | 66 | 2.0 | 2.0 | 0.00 | 0.00 | 0.00 | 92 | 1013.9 |
| 20260507110728 | 31 | 84 | 1.0 | 2.0 | 0.00 | 0.00 | 0.00 | 92 | 1014.0 |
| 20260507110225 | 30 | 49 | 2.0 | 2.0 | 0.00 | 0.00 | 0.00 | 92 | 1013.9 |
| 20260507105722 | 30 | 72 | 2.0 | 2.0 | 0.00 | 0.00 | 0.00 | 92 | 1013.7 |
| 20260507105218 | 30 | 53 | 2.0 | 2.0 | 0.00 | 0.00 | 0.00 | 92 | 1013.7 |
| 20260507104716 | 30 | 65 | 1.0 | 2.0 | 0.00 | 0.00 | 0.00 | 91 | 1013.7 |
| 20260507104212 | 30 | 74 | 2.0 | 2.0 | 0.00 | 0.00 | 0.00 | 91 | 1013.8 |
| 20260507103708 | 30 | 49 | 2.0 | 2.0 | 0.00 | 0.00 | 0.00 | 91 | 1013.9 |
| 20260507103205 | 30 | 79 | 2.0 | 2.0 | 0.00 | 0.00 | 0.00 | 91 | 1013.8 |
| 20260507102701 | 30 | 69 | 2.0 | 2.0 | 0.00 | 0.00 | 0.00 | 91 | 1014.0 |
| 20260507102158 | 30 | 80 | 2.0 | 2.0 | 0.00 | 0.00 | 0.00 | 92 | 1013.8 |
| 20260507101653 | 30 | 85 | 1.0 | 2.0 | 0.00 | 0.00 | 0.00 | 91 | 1014.0 |
| 20260507101149 | 30 | 81 | 2.0 | 2.0 | 0.00 | 0.00 | 0.00 | 91 | 1013.8 |
| 20260507100647 | 30 | 68 | 2.0 | 2.0 | 0.00 | 0.00 | 0.00 | 91 | 1014.1 |
| 20260507100145 | 30 | 64 | 2.0 | 2.0 | 0.00 | 0.00 | 0.00 | 91 | 1013.7 |
| 20260507095643 | 30 | 82 | 1.0 | 2.0 | 0.00 | 0.00 | 0.00 | 91 | 1013.8 |
| 20260507095139 | 30 | 72 | 0.0 | 2.0 | 0.00 | 0.00 | 0.00 | 91 | 1013.9 |
| 20260507094635 | 29 | 85 | 1.0 | 2.0 | 0.00 | 0.00 | 0.00 | 89 | 1013.9 |
| 20260507094132 | 30 | 55 | 1.0 | 2.0 | 0.00 | 0.00 | 0.00 | 89 | 1013.7 |
| 20260507093629 | 30 | 64 | 1.0 | 2.0 | 0.00 | 0.00 | 0.00 | 89 | 1013.9 |
| 20260507093128 | 30 | 66 | 1.0 | 2.0 | 0.00 | 0.00 | 0.00 | 89 | 1014.0 |
| 20260507092625 | 30 | 74 | 1.0 | 2.0 | 0.00 | 0.00 | 0.00 | 89 | 1013.9 |
| 20260507092121 | 31 | 55 | 2.0 | 2.0 | 0.00 | 0.00 | 0.00 | 89 | 1014.0 |
| 20260507091618 | 31 | 56 | 2.0 | 2.0 | 0.00 | 0.00 | 0.00 | 89 | 1014.0 |
| 20260507091114 | 31 | 59 | 2.0 | 2.0 | 0.00 | 0.00 | 0.00 | 89 | 1014.0 |
| 20260507090610 | 31 | 48 | 2.0 | 2.0 | 0.00 | 0.00 | 0.00 | 88 | 1013.9 |
| 20260507090107 | 31 | 85 | 2.0 | 2.0 | 0.00 | 0.00 | 0.00 | 89 | 1013.9 |
| 20260507085604 | 31 | 89 | 1.0 | 2.0 | 0.00 | 0.00 | 0.00 | 88 | 1013.7 |
| 20260507085101 | 31 | 77 | 1.0 | 2.0 | 0.00 | 0.00 | 0.00 | 88 | 1014.1 |
| 20260507084557 | 31 | 72 | 2.0 | 2.0 | 0.00 | 0.00 | 0.00 | 88 | 1013.9 |
| 20260507084054 | 31 | 59 | 2.0 | 2.0 | 0.00 | 0.00 | 0.00 | 88 | 1013.9 |
| 20260507083550 | 31 | 68 | 1.0 | 2.0 | 0.00 | 0.00 | 0.00 | 87 | 1013.8 |
| 20260507083048 | 31 | 70 | 1.0 | 2.0 | 0.00 | 0.00 | 0.00 | 87 | 1014.0 |
| 20260507082544 | 31 | 89 | 1.0 | 2.0 | 0.00 | 0.00 | 0.00 | 87 | 1013.8 |
| 20260507082041 | 31 | 57 | 1.0 | 1.0 | 0.00 | 0.00 | 0.00 | 87 | 1013.9 |
| 20260507081536 | 31 | 86 | 1.0 | 2.0 | 0.00 | 0.00 | 0.00 | 86 | 1013.7 |
| 20260507081034 | 31 | 80 | 1.0 | 2.0 | 0.00 | 0.00 | 0.00 | 86 | 1013.8 |
| 20260507080529 | 31 | 66 | 2.0 | 2.0 | 0.00 | 0.00 | 0.00 | 86 | 1014.0 |
| 20260507080026 | 31 | 63 | 1.0 | 2.0 | 0.00 | 0.00 | 0.00 | 85 | 1013.9 |
| 20260507075521 | 31 | 58 | 2.0 | 2.0 | 0.00 | 0.00 | 0.00 | 84 | 1014.0 |
| 20260507075018 | 32 | 67 | 2.0 | 2.0 | 0.00 | 0.00 | 0.00 | 83 | 1014.0 |
| 20260507074515 | 32 | 65 | 1.0 | 2.0 | 0.00 | 0.00 | 0.00 | 83 | 1014.1 |
| 20260507074014 | 32 | 75 | 2.0 | 2.0 | 0.00 | 0.00 | 0.00 | 83 | 1014.0 |
| 20260507073509 | 32 | 77 | 2.0 | 2.0 | 0.00 | 0.00 | 0.00 | 83 | 1014.2 |
| 20260507073006 | 32 | 82 | 1.0 | 2.0 | 0.00 | 0.00 | 0.00 | 82 | 1014.1 |
| 20260507072504 | 32 | 88 | 1.0 | 2.0 | 0.00 | 0.00 | 0.00 | 83 | 1014.3 |
| 20260507072000 | 32 | 89 | 2.0 | 2.0 | 0.00 | 0.00 | 0.00 | 82 | 1014.1 |
| 20260507071457 | 33 | 79 | 1.0 | 2.0 | 0.00 | 0.00 | 0.00 | 82 | 1014.1 |
| 20260507070954 | 32 | 89 | 1.0 | 2.0 | 0.00 | 0.00 | 0.00 | 83 | 1014.2 |
| 20260507070451 | 32 | 62 | 2.0 | 2.0 | 0.00 | 0.00 | 0.00 | 82 | 1014.1 |
| 20260507065948 | 32 | 53 | 2.0 | 2.0 | 0.00 | 0.00 | 0.00 | 83 | 1014.2 |
| 20260507065444 | 33 | 76 | 1.0 | 2.0 | 0.00 | 0.00 | 0.00 | 83 | 1014.4 |
| 20260507064942 | 33 | 78 | 1.0 | 2.0 | 0.00 | 0.00 | 0.00 | 81 | 1014.3 |
| 20260507064440 | 33 | 80 | 1.0 | 2.0 | 0.00 | 0.00 | 0.00 | 81 | 1014.4 |
| 20260507063937 | 33 | 78 | 2.0 | 2.0 | 0.00 | 0.00 | 0.00 | 80 | 1014.3 |
| 20260507063434 | 33 | 70 | 2.0 | 2.0 | 0.00 | 0.00 | 0.00 | 79 | 1014.5 |
| 20260507062931 | 33 | 41 | 2.0 | 2.0 | 0.00 | 0.00 | 0.00 | 78 | 1014.4 |
| 20260507062429 | 34 | 45 | 2.0 | 2.0 | 0.00 | 0.00 | 0.00 | 79 | 1014.7 |
| 20260507061926 | 34 | 60 | 2.0 | 3.0 | 0.00 | 0.00 | 0.00 | 79 | 1014.5 |
| 20260507061423 | 34 | 83 | 2.0 | 2.0 | 0.00 | 0.00 | 0.00 | 78 | 1014.5 |
| 20260507060922 | 34 | 87 | 2.0 | 2.0 | 0.00 | 0.00 | 0.00 | 78 | 1014.4 |
| 20260507060418 | 34 | 95 | 1.0 | 2.0 | 0.00 | 0.00 | 0.00 | 79 | 1014.3 |
| 20260507055915 | 34 | 51 | 2.0 | 2.0 | 0.00 | 0.00 | 0.00 | 78 | 1014.6 |
| 20260507055410 | 34 | 49 | 2.0 | 2.0 | 0.00 | 0.00 | 0.00 | 78 | 1014.4 |
| 20260507054908 | 34 | 59 | 1.0 | 2.0 | 0.00 | 0.00 | 0.00 | 77 | 1014.3 |
| 20260507054403 | 34 | 77 | 2.0 | 2.0 | 0.00 | 0.00 | 0.00 | 77 | 1014.5 |
| 20260507053901 | 34 | 84 | 1.0 | 2.0 | 0.00 | 0.00 | 0.00 | 75 | 1014.3 |
| 20260507053359 | 35 | 47 | 2.0 | 2.0 | 0.00 | 0.00 | 0.00 | 75 | 1014.3 |
| 20260507052857 | 35 | 56 | 2.0 | 2.0 | 0.00 | 0.00 | 0.00 | 74 | 1014.5 |
| 20260507052354 | 35 | 63 | 2.0 | 2.0 | 0.00 | 0.00 | 0.00 | 75 | 1014.6 |
| 20260507051851 | 35 | 60 | 2.0 | 2.0 | 0.00 | 0.00 | 0.00 | 74 | 1014.4 |
| 20260507051349 | 35 | 69 | 2.0 | 2.0 | 0.00 | 0.00 | 0.00 | 73 | 1014.6 |
| 20260507050845 | 35 | 76 | 1.0 | 2.0 | 0.00 | 0.00 | 0.00 | 72 | 1014.4 |
| 20260507050342 | 35 | 77 | 2.0 | 2.0 | 0.00 | 0.00 | 0.00 | 72 | 1014.5 |
| 20260507045838 | 36 | 86 | 2.0 | 2.0 | 0.00 | 0.00 | 0.00 | 70 | 1014.5 |
| 20260507045335 | 36 | 67 | 1.0 | 2.0 | 0.00 | 0.00 | 0.00 | 68 | 1014.5 |
| 20260507044832 | 36 | 68 | 1.0 | 2.0 | 0.00 | 0.00 | 0.00 | 67 | 1014.5 |
| 20260507044329 | 37 | 59 | 2.0 | 2.0 | 0.00 | 0.00 | 0.00 | 67 | 1014.5 |
| 20260507043825 | 37 | 77 | 1.0 | 2.0 | 0.00 | 0.00 | 0.00 | 66 | 1014.5 |
| 20260507043322 | 37 | 87 | 2.0 | 2.0 | 0.00 | 0.00 | 0.00 | 64 | 1014.5 |
| 20260507042818 | 37 | 77 | 2.0 | 2.0 | 0.00 | 0.00 | 0.00 | 66 | 1014.5 |
| 20260507042314 | 38 | 75 | 1.0 | 2.0 | 0.00 | 0.00 | 0.00 | 64 | 1014.5 |
| 20260507041811 | 38 | 74 | 2.0 | 2.0 | 0.00 | 0.00 | 0.00 | 61 | 1014.7 |
| 20260507041307 | 39 | 83 | 1.0 | 2.0 | 0.00 | 0.00 | 0.00 | 60 | 1014.5 |
| 20260507040805 | 39 | 84 | 2.0 | 2.0 | 0.00 | 0.00 | 0.00 | 62 | 1014.4 |
| 20260507040301 | 39 | 73 | 2.0 | 2.0 | 0.00 | 0.00 | 0.00 | 61 | 1014.3 |
| 20260507035756 | 39 | 74 | 2.0 | 2.0 | 0.00 | 0.00 | 0.00 | 61 | 1014.6 |
| 20260507035252 | 39 | 78 | 1.0 | 2.0 | 0.00 | 0.00 | 0.00 | 59 | 1014.6 |
| 20260507034750 | 40 | 52 | 2.0 | 2.0 | 0.00 | 0.00 | 0.00 | 59 | 1014.5 |
| 20260507034246 | 40 | 76 | 1.0 | 2.0 | 0.00 | 0.00 | 0.00 | 58 | 1014.6 |
| 20260507033745 | 41 | 58 | 2.0 | 2.0 | 0.00 | 0.00 | 0.00 | 55 | 1014.5 |
| 20260507033242 | 41 | 88 | 1.0 | 2.0 | 0.00 | 0.00 | 0.00 | 56 | 1014.7 |
| 20260507032739 | 41 | 46 | 2.0 | 2.0 | 0.00 | 0.00 | 0.00 | 54 | 1014.6 |
| 20260507032235 | 42 | 50 | 2.0 | 3.0 | 0.00 | 0.00 | 0.00 | 54 | 1014.7 |
| 20260507031732 | 42 | 55 | 2.0 | 2.0 | 0.00 | 0.00 | 0.00 | 53 | 1014.7 |
| 20260507031229 | 42 | 36 | 3.0 | 3.0 | 0.00 | 0.00 | 0.00 | 53 | 1014.5 |
| 20260507030726 | 43 | 65 | 2.0 | 2.0 | 0.00 | 0.00 | 0.00 | 53 | 1014.6 |
| 20260507030223 | 43 | 50 | 1.0 | 2.0 | 0.00 | 0.00 | 0.00 | 51 | 1014.5 |
| 20260507025720 | 44 | 34 | 1.0 | 2.0 | 0.00 | 0.00 | 0.00 | 50 | 1014.4 |
| 20260507025217 | 44 | 38 | 1.0 | 2.0 | 0.00 | 0.00 | 0.00 | 49 | 1014.3 |
| 20260507024715 | 44 | 269 | 0.0 | 2.0 | 0.00 | 0.00 | 0.00 | 49 | 1014.5 |
| 20260507024212 | 44 | 52 | 1.0 | 2.0 | 0.00 | 0.00 | 0.00 | 50 | 1014.6 |
| 20260507023707 | 44 | 34 | 2.0 | 2.0 | 0.00 | 0.00 | 0.00 | 51 | 1014.4 |
| 20260507023205 | 44 | 86 | 1.0 | 2.0 | 0.00 | 0.00 | 0.00 | 50 | 1014.3 |
| 20260507022702 | 44 | 53 | 0.0 | 2.0 | 0.00 | 0.00 | 0.00 | 48 | 1014.3 |
| 20260507022158 | 45 | 350 | 0.0 | 2.0 | 0.00 | 0.00 | 0.00 | 48 | 1014.4 |
| 20260507021654 | 45 | 347 | 1.0 | 2.0 | 0.00 | 0.00 | 0.00 | 47 | 1014.3 |
| 20260507021149 | 45 | 355 | 2.0 | 2.0 | 0.00 | 0.00 | 0.00 | 47 | 1014.3 |
| 20260507020648 | 45 | 333 | 0.0 | 2.0 | 0.00 | 0.00 | 0.00 | 47 | 1014.0 |
| 20260507020144 | 45 | 19 | 0.0 | 3.0 | 0.00 | 0.00 | 0.00 | 47 | 1013.9 |
| 20260507015643 | 46 | 333 | 0.0 | 3.0 | 0.00 | 0.00 | 0.00 | 46 | 1013.9 |
| 20260507015139 | 46 | 298 | 1.0 | 2.0 | 0.00 | 0.00 | 0.00 | 45 | 1013.9 |
| 20260507014636 | 46 | 313 | 2.0 | 2.0 | 0.00 | 0.00 | 0.00 | 45 | 1013.9 |
| 20260507014132 | 46 | 61 | 2.0 | 2.0 | 0.00 | 0.00 | 0.00 | 45 | 1014.0 |
| 20260507013629 | 46 | 326 | 0.0 | 0.0 | 0.00 | 0.00 | 0.00 | 45 | 1013.8 |
| 20260507013126 | 46 | 0 | 1.0 | 2.0 | 0.00 | 0.00 | 0.00 | 44 | 1013.8 |
| 20260507012623 | 46 | 320 | 3.0 | 4.0 | 0.00 | 0.00 | 0.00 | 44 | 1013.8 |
| 20260507012118 | 46 | 2 | 0.0 | 2.0 | 0.00 | 0.00 | 0.00 | 43 | 1013.8 |
| 20260507011617 | 47 | 269 | 1.0 | 3.0 | 0.00 | 0.00 | 0.00 | 42 | 1013.7 |
| 20260507011113 | 47 | 288 | 0.0 | 2.0 | 0.00 | 0.00 | 0.00 | 42 | 1013.9 |
| 20260507010608 | 47 | 31 | 2.0 | 3.0 | 0.00 | 0.00 | 0.00 | 42 | 1013.7 |
| 20260507010104 | 48 | 333 | 2.0 | 4.0 | 0.00 | 0.00 | 0.00 | 42 | 1013.5 |
| 20260507005602 | 48 | 259 | 2.0 | 5.0 | 0.00 | 0.00 | 0.00 | 42 | 1013.6 |
| 20260507005057 | 48 | 292 | 2.0 | 4.0 | 0.00 | 0.00 | 0.00 | 40 | 1013.4 |
| 20260507004555 | 48 | 281 | 4.0 | 4.0 | 0.00 | 0.00 | 0.00 | 41 | 1013.7 |
| 20260507004052 | 49 | 260 | 3.0 | 4.0 | 0.00 | 0.00 | 0.00 | 41 | 1013.5 |
| 20260507003548 | 49 | 176 | 0.0 | 3.0 | 0.00 | 0.00 | 0.00 | 41 | 1013.6 |
| 20260507003043 | 49 | 331 | 1.0 | 5.0 | 0.00 | 0.00 | 0.00 | 40 | 1013.5 |
| 20260507002540 | 49 | 267 | 2.0 | 4.0 | 0.00 | 0.00 | 0.00 | 41 | 1013.1 |
| 20260507002036 | 49 | 294 | 1.0 | 3.0 | 0.00 | 0.00 | 0.00 | 41 | 1013.4 |
| 20260507001533 | 50 | 283 | 2.0 | 5.0 | 0.00 | 0.00 | 0.00 | 40 | 1013.2 |
| 20260507001030 | 50 | 263 | 1.0 | 6.0 | 0.00 | 0.00 | 0.00 | 40 | 1013.4 |
| 20260507000526 | 50 | 330 | 3.0 | 6.0 | 0.00 | 0.00 | 0.00 | 39 | 1013.3 |
| 20260507000023 | 50 | 74 | 0.0 | 4.0 | 0.00 | 0.00 | 0.00 | 41 | 1013.0 |
| 20260506235520 | 50 | 121 | 0.0 | 4.0 | 0.00 | 0.00 | 0.00 | 41 | 1013.0 |
| 20260506235015 | 50 | 336 | 1.0 | 3.0 | 0.00 | 0.00 | 0.00 | 41 | 1013.0 |
| 20260506234513 | 51 | 213 | 1.0 | 5.0 | 0.00 | 0.00 | 0.00 | 40 | 1013.0 |
| 20260506234010 | 51 | 328 | 2.0 | 6.0 | 0.00 | 0.00 | 0.00 | 41 | 1012.8 |
| 20260506233506 | 51 | 8 | 0.0 | 14.0 | 0.00 | 0.00 | 0.00 | 40 | 1012.8 |
| 20260506233003 | 51 | 230 | 0.0 | 6.0 | 0.00 | 0.00 | 0.00 | 39 | 1012.8 |
| 20260506232459 | 51 | 274 | 6.0 | 11.0 | 0.00 | 0.00 | 0.00 | 39 | 1012.9 |
| 20260506231955 | 52 | 278 | 2.0 | 4.0 | 0.00 | 0.00 | 0.00 | 41 | 1012.8 |
| 20260506231453 | 52 | 238 | 3.0 | 9.0 | 0.00 | 0.00 | 0.00 | 39 | 1012.8 |
| 20260506230950 | 52 | 284 | 6.0 | 9.0 | 0.00 | 0.00 | 0.00 | 39 | 1012.7 |
| 20260506230446 | 52 | 302 | 4.0 | 9.0 | 0.00 | 0.00 | 0.00 | 39 | 1012.7 |
| 20260506225942 | 52 | 340 | 3.0 | 6.0 | 0.00 | 0.00 | 0.00 | 40 | 1012.6 |
| 20260506225440 | 53 | 319 | 3.0 | 4.0 | 0.00 | 0.00 | 0.00 | 41 | 1012.6 |
| 20260506224937 | 53 | 232 | 3.0 | 5.0 | 0.00 | 0.00 | 0.00 | 37 | 1012.3 |
| 20260506224434 | 53 | 269 | 2.0 | 4.0 | 0.00 | 0.00 | 0.00 | 38 | 1012.4 |
| 20260506223930 | 53 | 286 | 2.0 | 9.0 | 0.00 | 0.00 | 0.00 | 38 | 1012.5 |
| 20260506223426 | 53 | 280 | 4.0 | 5.0 | 0.00 | 0.00 | 0.00 | 38 | 1012.5 |
| 20260506222924 | 53 | 284 | 3.0 | 3.0 | 0.00 | 0.00 | 0.00 | 38 | 1012.4 |
| 20260506222420 | 53 | 297 | 2.0 | 3.0 | 0.00 | 0.00 | 0.00 | 38 | 1012.5 |
| 20260506221917 | 53 | 333 | 2.0 | 6.0 | 0.00 | 0.00 | 0.00 | 38 | 1012.2 |
| 20260506221414 | 53 | 348 | 2.0 | 2.0 | 0.00 | 0.00 | 0.00 | 40 | 1012.3 |